Location: Fort Frances
(48.6170°N, 93.4170°W)
Time: 17:49:55
(UTC-05:00)

ISS - All Passes

Search period start: 20 October 2014 00:00
Search period end: 30 October 2014 00:00
Orbit: 413 x 416 km, 51.6° (Epoch: 20 October)

Date Brightness Start Highest point End Pass type
(mag) Time Alt. Az. Time Alt. Az. Time Alt. Az.
20 Oct - 15:25:48 10° SSW 15:28:50 33° SE 15:31:54 10° E daylight
20 Oct - 17:02:05 10° W 17:05:25 66° NNW 17:08:46 10° ENE daylight
20 Oct - 18:39:08 10° WNW 18:42:24 49° N 18:45:41 10° E visible
20 Oct - 20:15:55 10° WNW 20:19:16 77° SSW 20:22:36 10° ESE visible
20 Oct - 21:53:21 10° W 21:55:33 17° SW 21:57:44 10° S visible
21 Oct - 14:37:19 10° SSW 14:39:58 22° SE 14:42:38 10° E daylight
21 Oct - 16:13:02 10° WSW 16:16:23 86° NNW 16:19:44 10° ENE daylight
21 Oct - 17:50:02 10° WNW 17:53:18 48° N 17:56:34 10° ENE daylight
21 Oct - 19:26:53 10° WNW 19:30:15 79° NNE 19:33:36 10° ESE visible
21 Oct - 21:03:54 10° W 21:06:42 25° SW 21:09:30 10° SSE visible
22 Oct - 13:49:15 10° S 13:51:08 14° SE 13:53:01 10° ESE daylight
22 Oct - 15:24:01 10° WSW 15:27:20 69° SSE 15:30:40 10° ENE daylight
22 Oct - 17:00:53 10° W 17:04:10 50° N 17:07:26 10° ENE daylight
22 Oct - 18:37:49 10° WNW 18:41:09 62° NNE 18:44:29 10° E visible
22 Oct - 20:14:38 10° WNW 20:17:47 38° SSW 20:20:54 10° SE visible
23 Oct - 14:35:06 10° SW 14:38:19 46° SSE 14:41:32 10° ENE daylight
23 Oct - 16:11:42 10° W 16:15:00 57° NNW 16:18:19 10° ENE daylight
23 Oct - 17:48:42 10° WNW 17:52:00 53° N 17:55:17 10° E daylight
23 Oct - 19:25:28 10° WNW 19:28:46 57° SSW 19:32:03 10° SE visible
23 Oct - 21:03:40 10° WSW 21:04:53 12° SW 21:06:05 10° SSW visible
24 Oct - 13:46:20 10° SSW 13:49:18 30° SE 13:52:17 10° E daylight
24 Oct - 15:22:29 10° WSW 15:25:49 70° NNW 15:29:10 10° ENE daylight
24 Oct - 16:59:32 10° WNW 17:02:47 48° N 17:06:03 10° E daylight
24 Oct - 18:36:19 10° WNW 18:39:40 83° SSW 18:43:00 10° ESE visible
24 Oct - 20:13:36 10° W 20:15:59 18° SW 20:18:20 10° S visible
25 Oct - 12:57:47 10° S 13:00:18 20° SE 13:02:49 10° E daylight
25 Oct - 14:33:18 10° WSW 14:36:39 88° SSE 14:40:00 10° ENE daylight
25 Oct - 16:10:17 10° WNW 16:13:32 48° N 16:16:48 10° ENE daylight
25 Oct - 17:47:08 10° WNW 17:50:30 74° NNE 17:53:50 10° ESE daylight
25 Oct - 19:24:05 10° W 19:26:59 28° SW 19:29:52 10° SSE visible
26 Oct - 12:09:45 10° SSE 12:11:19 13° SE 12:12:53 10° ESE daylight
26 Oct - 13:44:11 10° SW 13:47:29 62° SSE 13:50:47 10° ENE daylight
26 Oct - 15:20:59 10° W 15:24:15 51° N 15:27:32 10° ENE daylight
26 Oct - 16:57:56 10° WNW 17:01:15 59° NNE 17:04:33 10° E daylight
26 Oct - 18:34:43 10° WNW 18:37:54 42° SSW 18:41:04 10° SE visible
27 Oct - 12:55:09 10° SW 12:58:19 41° SSE 13:01:29 10° ENE daylight
27 Oct - 14:31:39 10° W 14:34:57 59° NNW 14:38:16 10° ENE daylight
27 Oct - 16:08:40 10° WNW 16:11:56 51° N 16:15:13 10° E daylight
27 Oct - 17:45:25 10° WNW 17:48:44 63° SSW 17:52:01 10° SE daylight
27 Oct - 19:23:16 10° WSW 19:24:53 13° SW 19:26:30 10° SSW visible
28 Oct - 12:06:18 10° SSW 12:09:10 27° SE 12:12:03 10° E daylight
28 Oct - 13:42:19 10° WSW 13:45:39 75° NNW 13:48:59 10° ENE daylight
28 Oct - 15:19:20 10° WNW 15:22:35 48° N 15:25:50 10° ENE daylight
28 Oct - 16:56:07 10° WNW 16:59:28 89° SSW 17:02:49 10° ESE daylight
28 Oct - 18:33:17 10° W 18:35:49 20° SW 18:38:21 10° S visible
29 Oct - 11:17:43 10° S 11:20:02 18° SE 11:22:22 10° E daylight
29 Oct - 12:53:00 10° WSW 12:56:20 82° SSE 12:59:41 10° ENE daylight
29 Oct - 14:29:56 10° W 14:33:11 48° N 14:36:27 10° ENE daylight
29 Oct - 16:06:48 10° WNW 16:10:09 69° NNE 16:13:28 10° E daylight
29 Oct - 17:43:41 10° W 17:46:40 31° SW 17:49:39 10° SSE daylight
